Regional Weather Roundup
Issued by NWS

Home | Current Version | Previous Version | Text Only | Print | Product List | Glossary On
Versions: 1 2 3 4 5 6 7 8 9 10 11 12 13 14 15 16 17 18 19 20 21 22 23 24 25 26 27
000
ASUS42 KTBW 241610
RWRFL
FLORIDA REGIONAL WEATHER ROUNDUP
NATIONAL WEATHER SERVICE TAMPA BAY RUSKIN FL
1200 PM EDT FRI OCT 24 2014

NOTE: "FAIR" INDICATES FEW OR NO CLOUDS BELOW 12,000 FEET WITH NO
SIGNIFICANT WEATHER AND/OR OBSTRUCTIONS TO VISIBILITY.


FLZ001>010-012>015-112-114-115-241700-
PANHANDLE FLORIDA

CITY           SKY/WX    TMP DP  RH WIND       PRES   REMARKS
PENSACOLA      SUNNY     70  47  43 VRB6      30.08S
PENSACOLA NAS  MOSUNNY   72  48  42 VRB6      30.08S
MILTON NAS     MOSUNNY   71  45  39 VRB5      30.09S
CRESTVIEW      SUNNY     70  48  45 CALM      30.09S
DUKE FIELD     MOSUNNY   69  48  47 N5        30.08R
VALPARAISO     PTSUNNY   71  44  36 N2        30.07R
MARY ESTHER    MOSUNNY   72  39  30 N5        30.07R
PANAMA CITY    FAIR      73  48  41 N3        30.06F
TYNDALL AFB    SUNNY     72  50  45 VRB2      30.07F
APALACHICOLA   SUNNY     74  45  35 SE7       30.06S

STATION/POSITION SKY/WX   TEMP    WIND        PRES    WAVE   SWELL
                          AIR SEA DIR/SP/G            HT/PER HT/PER
                          (F)     (DEG/KT/KT) (MB)    (FT/S) (FT/S)
30.1N   87.6W              68 78   30/  8/ 10 1018.4R   2/ 7   2/ 7
29.2N   88.2W              71 79   10/ 10/ 14 1019.2S   3/ 7   2/ 7
28.8N   86.0W              71 80   30/ 12/ 14 1018.0R   2/ 4   2/ 8
PANAMA CITY BEAC           69 76   50/  5/  7 1018.0F
CAPE SAN BLAS    NOT AVBL
TOWER C                    69      30/  8/  9 1017.7F
28.5N   84.5W              72 80   40/ 12/ 16 1017.2R   2/ 5

$$
FLZ011-016>038-118-127-128-134-139-239-241700-
NORTH FLORIDA

CITY           SKY/WX    TMP DP  RH WIND       PRES   REMARKS
MARIANNA       SUNNY     71  48  43 NE6       30.06F
TALLAHASSEE    MOSUNNY   73  45  36 E3        30.06F
PERRY          SUNNY     70  46  43 NE6       30.07F
CROSS CITY       N/A     72  51  47 VRB3      30.05F
LAKE CITY      FAIR      68  50  52 NE7       30.06F
GAINESVILLE    MOSUNNY   72  54  53 NE7       30.05F
MAYPORT NAS    PTSUNNY   72  53  51 N8        30.06R
JACKSONVILLE   PTSUNNY   71  51  49 VRB7      30.06S
JAX NAS        PTSUNNY   72  49  44 N10       30.06S
JAX CRAIG      MOSUNNY   72  51  47 N8        30.06S
JAX CECIL      SUNNY     70  50  49 N10       30.06S
FERNANDINA BEA FAIR      73  52  46 NW10      30.05S
ST AUGUSTINE   SUNNY     72  56  57 N7        30.05S

STATION/POSITION SKY/WX   TEMP    WIND        PRES    WAVE   SWELL
                          AIR SEA DIR/SP/G            HT/PER HT/PER
                          (F)     (DEG/KT/KT) (MB)    (FT/S) (FT/S)
SHELL POINT                64      20/  1/  4   N/A
KEATON BEACH               70      10/  5/  9 1017.9F
CEDAR KEY                  68      70/  7/  8 1017.5F
FERNANDINA                 66 74  350/ 11/ 12 1017.6S
30.7N   81.3W                 76                N/A     3/11   2/11
MAYPORT                    68 77  340/ 10/ 12   N/A
31.4N   80.9W              67 75  360/ 10/ 12 1018.0R   2/12   2/12
ST AUGUSTINE               70      10/  9/ 10 1017.9F

$$
FLZ040-043>046-052-053-057-058-063-144-241700-
INTERIOR CENTRAL FLORIDA

CITY           SKY/WX    TMP DP  RH WIND       PRES   REMARKS
OCALA          MOSUNNY   73  54  49 N8        30.04F
THE VILLAGES     N/A     73  57  56 N7        29.93S
LEESBURG       MOSUNNY   77  56  48 NE9       30.02F
ORLANDO EXEC   MOSUNNY   76  61  59 E6        29.99F
ORLANDO INTL   MOSUNNY   79  61  53 NE10      29.99F
KISSIMMEE      MOSUNNY   75  61  60 E12       30.00F
WINTER HAVEN   SUNNY     77  57  50 NE10      30.00F
LAKELAND       SUNNY     75  57  53 NE10G16   30.00S
BARTOW         MOSUNNY   75  55  50 NE10      30.03R
OKEECHOBEE       N/A     81  64  57 MISG      29.96S

$$
FLZ041-047-054-059-064-141-147-241700-
EAST CENTRAL FLORIDA

CITY           SKY/WX    TMP DP  RH WIND       PRES   REMARKS
ORMOND BEACH   SUNNY     73  55  53 NE12G17   30.02F
DAYTONA BEACH  MOSUNNY   76  57  51 NE13      30.02S
DELAND         MOSUNNY   75  55  50 NE10      30.03S
NEW SMYRNA BEA MOSUNNY   77  57  50 NE12      30.02F
JFK SPACE CTR  MOSUNNY   78  60  53 NE12      29.99F
TITUSVILLE     MOSUNNY   77  61  57 E15       30.00S
CAPE CANAVERAL SUNNY     78  59  51 NE12G17   29.98
PATRICK AFB    CLOUDY    78  61  56 NE14      29.98S
MELBOURNE      CLOUDY    79  59  50 E12       29.98S
VERO BEACH     SUNNY     79  59  50 E14       29.97S
FT PIERCE      SUNNY     80  62  54 NE9G21    29.95F
STUART         PTSUNNY   79  64  61 E16G23    29.96S

STATION/POSITION SKY/WX   TEMP    WIND        PRES    WAVE   SWELL
                          AIR SEA DIR/SP/G            HT/PER HT/PER
                          (F)     (DEG/KT/KT) (MB)    (FT/S) (FT/S)
28.5N   80.2W              75 80   50/ 12/ 16 1015.8R
28.9N   78.5W              74 81   70/ 12/ 14 1016.0F   3/11   2/11
TRIDENT PIER               78 80   50/ 12/ 15 1015.2R
28.4N   80.5W                 78                N/A     2/ 4
27.6N   80.2W                 80                N/A     4/ 6   2/11

$$
FLZ050-056-061-142-242-148-248-149-249-151-251-155-255-
160-260-241700-
WEST CENTRAL FLORIDA

CITY           SKY/WX    TMP DP  RH WIND       PRES   REMARKS
CRYSTAL RIVER  FAIR      73  52  46 N5        30.03F
INVERNESS      FAIR      73  54  49 NE7       30.03F
BROOKSVILLE    MOSUNNY   75  58  55 NE8       30.03S
ZEPHYRHILLS    FAIR      75  55  50 NE12G17   30.01F
CLEARWATER     MOSUNNY   76  59  55 N9        30.01S
TAMPA INTL     MOSUNNY   76  56  49 N9        30.01S
TAMPA EXEC     SUNNY     79  59  50 N7        30.01S
PLANT CITY     SUNNY     79  57  47 NE8G16    30.02S
MACDILL AFB    SUNNY     78  61  56 NE10      30.00S
ST PETERSBURG  SUNNY     75  60  59 NE13      29.98F
SARASOTA       SUNNY     77  59  53 NE10      29.97S
VENICE           N/A    N/A N/A N/A MISG      29.97F

STATION/POSITION SKY/WX   TEMP    WIND        PRES    WAVE   SWELL
                          AIR SEA DIR/SP/G            HT/PER HT/PER
                          (F)     (DEG/KT/KT) (MB)    (FT/S) (FT/S)
CEDAR KEY                  68      70/  7/  8 1017.5F
28.5N   84.5W              72 80   40/ 12/ 16 1017.2R   2/ 5
27.3N   84.3W                 81                N/A     4/ 6
CLEARWATER BEACH NOT AVBL
MIDDLE TAMPA BAY           71      40/ 14/ 17 1016.0S
VENICE                     76 79   40/ 11/ 14 1014.2F

$$
FLZ066-069-070-075>078-162-262-165-265-241700-
SOUTHWEST FLORIDA AND KEYS

CITY           SKY/WX    TMP DP  RH WIND       PRES   REMARKS
PUNTA GORDA    CLOUDY    78  63  59 NE13G21   29.97F
FT MYERS       CLOUDY    79  63  57 NE16      29.94S
SOUTHWEST INTL CLOUDY    80  63  55 NE17G25   29.94S
NAPLES         SUNNY     83  66  56 NE15      29.91S
MARATHON       CLOUDY    77  32  19 N12G20    29.85S
KEY WEST NAS   CLOUDY    78  72  81 N16G23    29.87S
KEY WEST INTL  PTSUNNY   79  74  84 N14G22    29.87S

STATION/POSITION SKY/WX   TEMP    WIND        PRES    WAVE   SWELL
                          AIR SEA DIR/SP/G            HT/PER HT/PER
                          (F)     (DEG/KT/KT) (MB)    (FT/S) (FT/S)
VENICE                     76 79   40/ 11/ 14 1014.2F
NAPLES                     78 81   50/  7/ 15 1013.7S
26.0N   85.6W              78 82   10/ 12/ 16 1015.6R   4/ 7   3/ 7
DRY TORTUGAS               78      40/ 22/ 24 1012.2R
NW FL BAY                  77      50/ 15/ 19 1011.0R
SAND KEY                   77      30/ 19/ 22 1011.5S
SOMBRERO KEY               76      10/ 17/ 19 1011.2R
LONG KEY                   76 78   20/ 17/ 19 1010.8F
MOLASSES REEF              77 82   70/  2/  3 1010.0F

$$
FLZ067-068-071>074-168-172>174-241700-
SOUTHEAST FLORIDA

CITY           SKY/WX    TMP DP  RH WIND       PRES   REMARKS
W PALM BEACH   LGT RAIN  79  67  66 NE18      29.91F
FT LAUDER-EXEC CLOUDY    78  68  71 NE17G24   29.89F
FT LAUDERDALE  CLOUDY    79  70  74 NE12G28   29.88S
POMPANO BEACH  CLOUDY    80  68  66 NE17G29   29.90S
PEMBROKE PINES CLOUDY    78  70  76 NE20G26   29.90S
OPA LOCKA      CLOUDY    78  70  76 NE21      29.88F
MIAMI          LGT RAIN  78  71  79 NE15G28   29.88S
WEST KENDALL   LGT RAIN  77  73  87 NE15      29.87F FOG
HOMESTEAD      HVY RAIN  75  73  94 NE21G28   29.84F FOG

STATION/POSITION SKY/WX   TEMP    WIND        PRES    WAVE   SWELL
                          AIR SEA DIR/SP/G            HT/PER HT/PER
                          (F)     (DEG/KT/KT) (MB)    (FT/S) (FT/S)
PORT EVERGLADES            79      50/ 20/ 25 1011.8
VIRGINIA KEY               76 80   50/ 13/ 24 1011.7S
LAKE WORTH                 78 79   40/ 23/ 26 1012.7F
FOWEY ROCKS                75 81   80/ 19/ 23 1011.4R
SETTLEMENT POINT           77      50/ 19/ 20 1013.5F

$$




USA.gov is the U.S. government's official web portal to all federal, state and local government web resources and services.